When you browse on this site, cookies collect data to enhance your experience and personalize the content and advertising you see.
Visit our Privacy Policy to learn more. By continuing to use the site, you agree to this use of cookies and data.
  • In Hungary
  • List of Countries
  • For 7 days
  • Water Temperature
  • Weather Map
  • News
  • Weather Widgets
  • user-avatar
    Login

    Hourly Weather Zarya

    Today, 21 October, Monday

    Time Temperature Precipitation Wind Pressure Humidity
    00:00 +16°C° 0 mm 3 mps 762 mmHg 72%
    01:00 +15°C° 0 mm 2 mps 762 mmHg 73%
    02:00 +15°C° 0 mm 2 mps 762 mmHg 74%
    03:00 +14°C° 0 mm 2 mps 762 mmHg 75%
    04:00 +14°C° 0 mm 2 mps 762 mmHg 76%
    05:00 +13°C° 0 mm 1 mps 762 mmHg 76%
    06:00 +13°C° 0 mm 1 mps 762 mmHg 77%
    07:00 +14°C° 0 mm 2 mps 762 mmHg 72%
    08:00 +15°C° 0 mm 2 mps 762 mmHg 67%
    09:00 +16°C° 0 mm 2 mps 762 mmHg 61%
    10:00 +18°C° 0 mm 3 mps 762 mmHg 56%
    11:00 +20°C° 0 mm 3 mps 762 mmHg 51%
    12:00 +22°C° 0 mm 3 mps 762 mmHg 46%
    13:00 +22°C° 0 mm 3 mps 762 mmHg 43%
    14:00 +23°C° 0 mm 4 mps 762 mmHg 39%
    15:00 +25°C° 0 mm 4 mps 761 mmHg 36%
    16:00 +22°C° 0 mm 4 mps 761 mmHg 40%
    17:00 +21°C° 0 mm 4 mps 761 mmHg 43%
    18:00 +19°C° 0 mm 4 mps 761 mmHg 47%
    19:00 +18°C° 0 mm 4 mps 761 mmHg 51%
    20:00 +17°C° 0 mm 4 mps 761 mmHg 56%
    21:00 +15°C° 0 mm 4 mps 761 mmHg 60%
    22:00 +15°C° 0 mm 4 mps 761 mmHg 64%
    23:00 +14°C° 0 mm 3 mps 761 mmHg 68%

    Tomorrow, 22 October, Tuesday

    Time Temperature Precipitation Wind Pressure Humidity
    00:00 +13°C° 0 mm 3 mps 761 mmHg 72%
    01:00 +13°C° 0 mm 3 mps 761 mmHg 74%
    02:00 +13°C° 0 mm 2 mps 761 mmHg 76%
    03:00 +12°C° 0 mm 2 mps 761 mmHg 78%
    04:00 +12°C° 0 mm 2 mps 761 mmHg 80%
    05:00 +12°C° 0 mm 2 mps 761 mmHg 82%
    06:00 +11°C° 0 mm 1 mps 761 mmHg 83%
    07:00 +12°C° 0 mm 2 mps 762 mmHg 79%
    08:00 +13°C° 0 mm 2 mps 762 mmHg 74%
    09:00 +14°C° 0 mm 2 mps 762 mmHg 69%
    10:00 +16°C° 0 mm 2 mps 762 mmHg 63%
    11:00 +18°C° 0 mm 2 mps 762 mmHg 56%
    12:00 +20°C° 0 mm 3 mps 762 mmHg 50%
    13:00 +21°C° 0 mm 3 mps 761 mmHg 48%
    14:00 +21°C° 0 mm 3 mps 761 mmHg 45%
    15:00 +22°C° 0 mm 3 mps 761 mmHg 43%
    16:00 +21°C° 0 mm 3 mps 761 mmHg 48%
    17:00 +19°C° 0 mm 3 mps 761 mmHg 53%
    18:00 +17°C° 0 mm 3 mps 761 mmHg 58%
    19:00 +17°C° 0 mm 3 mps 761 mmHg 60%
    20:00 +16°C° 0 mm 3 mps 761 mmHg 62%
    21:00 +14°C° 0 mm 3 mps 761 mmHg 64%
    22:00 +14°C° 0 mm 3 mps 761 mmHg 67%
    23:00 +13°C° 0 mm 3 mps 761 mmHg 70%

    Day after tomorrow, 23 October, Wednesday

    Time Temperature Precipitation Wind Pressure Humidity
    00:00 +13°C° 0 mm 2 mps 761 mmHg 73%
    01:00 +13°C° 0 mm 2 mps 761 mmHg 75%
    02:00 +13°C° 0 mm 2 mps 761 mmHg 76%
    03:00 +12°C° 0 mm 2 mps 761 mmHg 78%
    04:00 +12°C° 0 mm 2 mps 761 mmHg 80%
    05:00 +10°C° 0 mm 2 mps 761 mmHg 81%
    06:00 +10°C° 0 mm 2 mps 761 mmHg 83%
    07:00 +12°C° 0 mm 2 mps 761 mmHg 77%
    08:00 +12°C° 0 mm 3 mps 761 mmHg 71%
    09:00 +14°C° 0 mm 3 mps 761 mmHg 66%
    10:00 +17°C° 0 mm 3 mps 761 mmHg 60%
    11:00 +18°C° 0 mm 4 mps 761 mmHg 54%
    12:00 +20°C° 0 mm 4 mps 761 mmHg 48%
    13:00 +21°C° 0 mm 4 mps 761 mmHg 46%
    14:00 +21°C° 0 mm 4 mps 761 mmHg 44%
    15:00 +22°C° 0 mm 4 mps 760 mmHg 42%
    16:00 +20°C° 0 mm 4 mps 760 mmHg 45%
    17:00 +19°C° 0 mm 4 mps 760 mmHg 49%
    18:00 +17°C° 0 mm 4 mps 760 mmHg 52%
    19:00 +17°C° 0 mm 4 mps 760 mmHg 54%
    20:00 +15°C° 0 mm 4 mps 761 mmHg 55%
    21:00 +14°C° 0 mm 4 mps 761 mmHg 57%
    22:00 +13°C° 0 mm 4 mps 761 mmHg 60%
    23:00 +13°C° 0 mm 3 mps 761 mmHg 62%

    24 October, Thursday

    Time Temperature Precipitation Wind Pressure Humidity
    00:00 +12°C° 0 mm 3 mps 760 mmHg 64%
    01:00 +11°C° 0 mm 3 mps 760 mmHg 66%
    02:00 +12°C° 0 mm 2 mps 760 mmHg 68%
    03:00 +10°C° 0 mm 2 mps 760 mmHg 70%
    04:00 +10°C° 0 mm 2 mps 760 mmHg 72%
    05:00 +9°C° 0 mm 2 mps 760 mmHg 73%
    06:00 +9°C° 0 mm 2 mps 760 mmHg 75%
    07:00 +10°C° 0 mm 2 mps 761 mmHg 70%
    08:00 +12°C° 0 mm 2 mps 761 mmHg 66%
    09:00 +14°C° 0 mm 2 mps 761 mmHg 61%
    10:00 +16°C° 0 mm 2 mps 760 mmHg 56%
    11:00 +17°C° 0 mm 2 mps 760 mmHg 51%
    12:00 +19°C° 0 mm 2 mps 760 mmHg 46%
    13:00 +20°C° 0 mm 2 mps 760 mmHg 44%
    14:00 +21°C° 0 mm 3 mps 759 mmHg 42%
    15:00 +22°C° 0 mm 3 mps 759 mmHg 39%
    16:00 +20°C° 0 mm 3 mps 759 mmHg 43%
    17:00 +19°C° 0 mm 3 mps 759 mmHg 46%
    18:00 +17°C° 0 mm 3 mps 759 mmHg 50%
    19:00 +16°C° 0 mm 3 mps 759 mmHg 51%
    20:00 +14°C° 0 mm 3 mps 759 mmHg 52%
    21:00 +13°C° 0 mm 3 mps 759 mmHg 53%
    22:00 +13°C° 0 mm 2 mps 759 mmHg 56%
    23:00 +13°C° 0 mm 2 mps 759 mmHg 59%

    25 October, Friday

    Time Temperature Precipitation Wind Pressure Humidity
    00:00 +12°C° 0 mm 2 mps 759 mmHg 62%
    01:00 +12°C° 0 mm 2 mps 759 mmHg 65%
    02:00 +10°C° 0 mm 2 mps 759 mmHg 68%
    03:00 +11°C° 0 mm 1 mps 759 mmHg 71%
    04:00 +11°C° 0 mm 1 mps 759 mmHg 72%
    05:00 +10°C° 0 mm 1 mps 759 mmHg 73%
    06:00 +10°C° 0 mm 1 mps 759 mmHg 74%
    07:00 +11°C° 0 mm 1 mps 759 mmHg 70%
    08:00 +12°C° 0 mm 1 mps 759 mmHg 65%
    09:00 +14°C° 0 mm 1 mps 759 mmHg 60%
    10:00 +15°C° 0 mm 1 mps 759 mmHg 55%
    11:00 +17°C° 0 mm 2 mps 759 mmHg 50%
    12:00 +19°C° 0 mm 2 mps 759 mmHg 45%
    13:00 +20°C° 0 mm 2 mps 759 mmHg 44%
    14:00 +20°C° 0 mm 2 mps 759 mmHg 43%
    15:00 +21°C° 0 mm 3 mps 758 mmHg 42%
    16:00 +19°C° 0 mm 2 mps 758 mmHg 47%
    17:00 +17°C° 0 mm 2 mps 758 mmHg 53%
    18:00 +16°C° 0 mm 2 mps 758 mmHg 58%
    19:00 +15°C° 0 mm 2 mps 758 mmHg 63%
    20:00 +14°C° 0 mm 2 mps 758 mmHg 68%
    21:00 +14°C° 0 mm 2 mps 758 mmHg 72%
    22:00 +13°C° 0 mm 1 mps 759 mmHg 75%
    23:00 +13°C° 0 mm 1 mps 759 mmHg 78%

    26 October, Saturday

    Time Temperature Precipitation Wind Pressure Humidity
    00:00 +12°C° 0 mm 1 mps 759 mmHg 81%
    01:00 +12°C° 0 mm 1 mps 759 mmHg 83%
    02:00 +12°C° 0 mm 1 mps 759 mmHg 85%
    03:00 +11°C° 0 mm 1 mps 759 mmHg 87%
    04:00 +11°C° 0 mm 1 mps 759 mmHg 88%
    05:00 +11°C° 0 mm 1 mps 759 mmHg 89%
    06:00 +10°C° 0 mm 1 mps 759 mmHg 90%
    07:00 +12°C° 0 mm 1 mps 759 mmHg 85%
    08:00 +13°C° 0 mm 1 mps 760 mmHg 80%
    09:00 +14°C° 0 mm 1 mps 760 mmHg 75%
    10:00 +16°C° 0 mm 1 mps 760 mmHg 68%
    11:00 +17°C° 0 mm 0 mps 760 mmHg 61%
    12:00 +19°C° 0 mm 0 mps 760 mmHg 54%
    13:00 +21°C° 0 mm 1 mps 760 mmHg 52%
    14:00 +21°C° 0 mm 1 mps 760 mmHg 51%
    15:00 +22°C° 0 mm 1 mps 759 mmHg 49%
    16:00 +20°C° 0 mm 1 mps 759 mmHg 53%
    17:00 +19°C° 0 mm 1 mps 759 mmHg 58%
    18:00 +15°C° 0 mm 0 mps 759 mmHg 63%
    19:00 +15°C° 0 mm 0 mps 759 mmHg 65%
    20:00 +14°C° 0 mm 0 mps 759 mmHg 67%
    21:00 +14°C° 0 mm 0 mps 760 mmHg 69%
    22:00 +13°C° 0 mm 0 mps 760 mmHg 71%
    23:00 +13°C° 0 mm 0 mps 760 mmHg 73%

    27 October, Sunday

    Time Temperature Precipitation Wind Pressure Humidity
    00:00 +13°C° 0 mm 0 mps 760 mmHg 75%
    01:00 +12°C° 0 mm 0 mps 760 mmHg 77%
    02:00 +12°C° 0 mm 0 mps 760 mmHg 78%
    03:00 +12°C° 0 mm 0 mps 760 mmHg 80%
    04:00 +12°C° 0 mm 0 mps 760 mmHg 80%
    05:00 +12°C° 0 mm 0 mps 760 mmHg 81%
    06:00 +12°C° 0 mm 0 mps 760 mmHg 81%
    07:00 +13°C° 0 mm 0 mps 760 mmHg 76%
    08:00 +14°C° 0 mm 0 mps 760 mmHg 71%
    09:00 +15°C° 0 mm 0 mps 760 mmHg 66%
    10:00 +17°C° 0 mm 0 mps 760 mmHg 60%
    11:00 +20°C° 0 mm 1 mps 760 mmHg 54%
    12:00 +22°C° 0 mm 1 mps 760 mmHg 49%
    13:00 +22°C° 0 mm 1 mps 759 mmHg 48%
    14:00 +23°C° 0 mm 1 mps 759 mmHg 47%
    15:00 +23°C° 0 mm 1 mps 759 mmHg 46%
    16:00 +22°C° 0 mm 1 mps 759 mmHg 50%
    17:00 +21°C° 0 mm 1 mps 759 mmHg 54%
    18:00 +17°C° 0 mm 0 mps 759 mmHg 58%
    19:00 +17°C° 0 mm 0 mps 759 mmHg 60%
    20:00 +16°C° 0 mm 0 mps 759 mmHg 62%
    21:00 +15°C° 0 mm 0 mps 759 mmHg 65%
    22:00 +15°C° 0 mm 0 mps 759 mmHg 66%
    23:00 +15°C° 0 mm 0 mps 759 mmHg 68%
    Show more